Location: Pine Mountain Observatory
(43.7910°N, 120.9377°W)
Time: 16:28:30
(UTC-07:00)

APEX - Visible Passes

Search period start: 31 July 2015 00:00
Search period end: 10 August 2015 00:00
Orbit: 339 x 1304 km, 69.9° (Epoch: 31 July)

Date Brightness Start Highest point End Pass type
(mag) Time Alt. Az. Time Alt. Az. Time Alt. Az.
31 Jul 5.4 04:23:41 10° SSE 04:27:39 25° ESE 04:30:57 10° NE visible
01 Aug 5.6 04:02:49 10° SSE 04:06:20 20° ESE 04:09:22 10° ENE visible
02 Aug 5.8 03:42:02 10° SSE 03:44:58 17° ESE 03:47:38 10° ENE visible
03 Aug 6.0 03:21:24 10° SE 03:23:33 13° ESE 03:25:40 10° ENE visible
03 Aug 3.6 05:02:45 11° SW 05:07:08 52° WNW 05:10:37 10° NNE visible
04 Aug 6.1 03:01:14 10° ESE 03:02:07 11° ESE 03:03:12 10° E visible
04 Aug 3.4 04:42:19 17° SW 04:45:41 65° WNW 04:49:11 10° NNE visible
05 Aug 3.2 04:21:45 25° SSW 04:24:11 81° WNW 04:27:41 10° NNE visible
06 Aug 3.2 04:01:06 37° SSW 04:02:38 81° ESE 04:06:08 10° NNE visible
07 Aug 3.4 03:40:21 52° SSE 03:41:04 64° ESE 03:44:30 10° NNE visible
07 Aug 5.5 05:23:57 10° WNW 05:24:48 11° NW 05:25:29 10° NW visible
08 Aug 3.7 03:19:30 50° ESE 03:19:30 50° ESE 03:22:47 10° NE visible
08 Aug 5.3 05:01:20 10° W 05:03:06 13° NW 05:04:37 10° NNW visible
09 Aug 4.5 02:58:34 34° E 02:58:34 34° E 03:01:01 10° NE visible
09 Aug 5.1 04:39:55 13° W 04:41:21 15° NW 04:43:20 10° NNW visible
